weather.gov     
National Weather Service

Terminal Aerodrome Forecast
NWS Homepage
This page is being discontinued on March 12, 2014.
The same data is available at this site. Please update your bookmarks.
Thank you, and we apologize for the inconvenience.
Please send an email to SR-SRH.Webmaster@noaa.gov with any concerns.


Current Version
Previous Version:    01  02  03  04  05  06  07  08  09  10  11  12  13  14  15  16  17  18  19  20  21  22  23  24  25  26  27  28  29  30  
   31  32  33  34  35  36  37  
[Printable]
261
FTUS43 KOAX 221310 AAA
TAFLNK
TAF AMD
KLNK 221310Z 2213/2312 21008KT 4SM BR OVC004
      TEMPO 2213/2215 2SM BR
     FM221500 21009KT 4SM BR OVC007
      TEMPO 2215/2217 6SM BR BKN012
     FM221700 20013KT P6SM SCT250
     FM230100 18010KT 6SM BR BKN250
     FM231000 22007KT 5SM BR OVC020=




261
FTUS43 KOAX 221310 AAA
TAFLNK
TAF AMD
KLNK 221310Z 2213/2312 21008KT 4SM BR OVC004
      TEMPO 2213/2215 2SM BR
     FM221500 21009KT 4SM BR OVC007
      TEMPO 2215/2217 6SM BR BKN012
     FM221700 20013KT P6SM SCT250
     FM230100 18010KT 6SM BR BKN250
     FM231000 22007KT 5SM BR OVC020=


U.S. Dept. of Commerce
NOAA National Weather Service
1325 East West Highway
Silver Spring, MD 20910
E-mail: w-nws.webmaster@noaa.gov
Page last modified: May 16, 2007
NATIONAL WEATHER SERVICE: for Safety, for Work, for Fun - FOR LIFE